Flag for Luxembourg Weather past 2 weeks in Differdange, Luxembourg

Now
61 °F

Scattered clouds.


Feels Like: 61 °F
Forecast: 47 / 70 °F
Wind: 12 mph from West

Location: Luxembourg Airport

Current Time: Jul 30, 2015 at 2:25:14 PM

Latest Report: Jul 30, 2015 at 1:50 PM


Visibility: N/A

Pressure: 30.01 "Hg

Humidity: 59%

Dew point: 46 °F

Location of DifferdangeLocation

Historic Weather in Differdange — Graph

°F

Differdange temperature yesterday

Maximum temperature yesterday: 66 °F (at 2:50 PM)
Minimum temperature yesterday: 52 °F (at 7:20 AM)
Average temperature yesterday: 58 °F

Past Weeks' High & Low Weather Summary

 TemperatureHumidityPressure
High91 °F (Jul 17, 3:50 PM)100% (Jul 19, 7:50 AM)30.15 "Hg (Jul 19, 7:50 AM)
Low46 °F (Jul 30, 4:50 AM)26% (Jul 16, 3:50 PM)29.62 "Hg (Jul 27, 4:20 AM)
Average67 °F68%29.94 "Hg
* Reported Jul 15 12:20 PM — Jul 30 12:50 PM, Differdange, Weather by CustomWeather, © 2015

Note: Actual official high and low records may vary slightly from our data, if they occured in-between our weather recording intervals... More about our weather records

Advertising

Differdange weather history for previous 24 hours

 ConditionsComfort  
Time TempWeatherWind HumidityBarometerVisibility
12:50 PM
Thu, Jul 30
63 °FScattered clouds.9 mph52%30.01 "HgN/A
12:20 PM61 °FScattered clouds.10 mph55%30.01 "HgN/A
11:50 AM63 °FScattered clouds.10 mph56%30.01 "HgN/A
11:20 AM61 °FScattered clouds.10 mph59%30.01 "HgN/A
10:50 AM59 °FScattered clouds.9 mph63%30.01 "HgN/A
10:20 AM59 °FScattered clouds.9 mph68%30.01 "HgN/A
9:50 AM57 °FScattered clouds.9 mph72%30.01 "HgN/A
9:20 AM54 °FScattered clouds.6 mph82%30.01 "HgN/A
8:50 AM52 °FScattered clouds.8 mph88%30.01 "HgN/A
8:20 AM52 °FPassing clouds.8 mph82%30.01 "HgN/A
7:50 AM50 °FPassing clouds.5 mph82%30.01 "HgN/A
7:20 AM50 °FSunny.3 mph82%30.01 "Hg10 mi
6:50 AM46 °FClear.3 mph87%29.98 "Hg10 mi
6:20 AM46 °FClear.5 mph87%29.98 "Hg10 mi
5:50 AM46 °FClear.3 mph87%29.98 "Hg10 mi
5:20 AM46 °FClear.2 mph82%29.98 "Hg10 mi
4:50 AM46 °FClear.3 mph87%29.98 "Hg10 mi
4:20 AM48 °FClear.3 mph82%29.98 "Hg10 mi
3:50 AM48 °FCool.5 mph82%29.98 "HgN/A
3:20 AM48 °FCool.5 mph82%29.98 "HgN/A
2:50 AM50 °FCool.2 mph76%29.98 "HgN/A
2:20 AM50 °FCool.2 mph76%29.98 "HgN/A
1:50 AM52 °FClear.No wind72%29.98 "Hg10 mi
1:20 AM52 °FClear.1 mph72%29.98 "Hg10 mi
12:50 AM52 °FClear.2 mph72%29.98 "Hg10 mi
12:20 AM54 °FClear.3 mph67%29.98 "Hg10 mi
11:50 PM
Wed, Jul 29
55 °FClear.3 mph63%29.98 "Hg10 mi
11:20 PM55 °FClear.5 mph67%29.95 "Hg10 mi
10:50 PM57 °FClear.2 mph63%29.95 "Hg10 mi
10:20 PM57 °FSunny.3 mph63%29.95 "Hg10 mi
9:50 PM59 °FPassing clouds.5 mph59%29.95 "HgN/A
9:20 PM61 °FSunny.8 mph52%29.95 "Hg10 mi
8:50 PM63 °FSunny.13 mph49%29.92 "Hg10 mi
8:20 PM63 °FPassing clouds.14 mph49%29.92 "HgN/A
7:50 PM63 °FPassing clouds.12 mph49%29.92 "HgN/A
7:20 PM64 °FPassing clouds.15 mph43%29.89 "HgN/A
6:50 PM64 °FPassing clouds.17 mph43%29.89 "HgN/A
6:20 PM66 °FPassing clouds.16 mph40%29.89 "HgN/A
5:50 PM66 °FPassing clouds.14 mph46%29.89 "HgN/A
5:20 PM64 °FPassing clouds.10 mph49%29.89 "HgN/A
4:50 PM64 °FPassing clouds.13 mph49%29.89 "HgN/A
4:20 PM63 °FPassing clouds.15 mph49%29.86 "HgN/A
3:50 PM63 °FPassing clouds.18 mph45%29.86 "HgN/A
3:20 PM64 °FPassing clouds.17 mph43%29.86 "HgN/A
2:50 PM66 °FPassing clouds.18 mph40%29.86 "HgN/A
2:20 PM63 °FScattered clouds.16 mph49%29.86 "HgN/A
Weather by CustomWeather, © 2015

See weather overviewHow to use our weather pages